Welcome to the New NWS' Forecast!
Most changes are behind the scenes, but click here for differences you might notice.

Terminal Aerodrome Forecast (TAF)

Issued by National Weather Service (NWS)

                            
000
FTUS42 KMFL 181120
TAFMIA
TAF
KMIA 181120Z 1812/1918 07007KT P6SM FEW025
     FM181600 08012KT P6SM SCT025 SCT250
     FM190100 08010KT P6SM FEW035 SCT250
     FM190600 08006KT P6SM SCT030
     FM191500 08010KT P6SM SCT030=